Weather History for Lihue, HI

Change the Weather History Date:

Saturday, May 11, 2013

  Actual Average Record
Temperature  
Mean Temperature 73 °F 75 °F  
Max Temperature 79 °F 81 °F 90 °F (2004)
Min Temperature 66 °F 70 °F 61 °F (1954)
Degree Days  
Heating Degree Days 0 0  
Month to date heating degree days 0 0  
Since 1 July heating degree days 0 0  
Cooling Degree Days 8 10  
Month to date cooling degree days 90 110  
Year to date cooling degree days 852 1014  
Growing Degree Days 22 (Base 50)    
Moisture  
Dew Point 63 °F    
Average Humidity 72    
Maximum Humidity 81    
Minimum Humidity 62    
Precipitation  
Precipitation T in 0.08 in 1.35 in (1977)
Month to date precipitation 0.14 0.86  
Year to date precipitation 14.36 14.63  
Snow  
Snow 0.00 in - - ()
Month to date snowfall 0.0  
Since 1 July snowfall 0.0  
Snow Depth 0.00 in    
Sea Level Pressure  
Sea Level Pressure 30.13 in    
Wind  
Wind Speed 13 mph (NNE)    
Max Wind Speed 22 mph    
Max Gust Speed 25 mph    
Visibility 10 miles    
Events      
T = Trace of Precipitation, MM = Missing Value Source: NWS Daily Summary

Daily Weather History Graph

Daily Weather History Graph

Search for Another Location

Airport:

Trip Planner

Search our weather history database for the weather conditions in past years. The results will help you decide how hot, cold, wet, or windy it might be!

Date:

Astronomy

May. 11, 2013 Rise Set
Actual Time 5:59 AM HST 7:08 PM HST
Civil Twilight 5:35 AM HST 7:31 PM HST
Nautical Twilight 5:07 AM HST 8:00 PM HST
Astronomical Twilight 4:38 AM HST 8:29 PM HST
Moon 7:20 AM HST (5/11) 8:53 PM HST (5/11)
Length of Visible Light 13h 56m
Length of Day
13h 08m
Waxing Crescent, 3% of the Moon is Illuminated
May 11
Waxing Crescent
May 17
First Quarter
May 24
Full
May 31
Last Quarter
Jun 8
New

Hourly Weather History & Observations

Time (HST) Temp. Dew Point Humidity Pressure Visibility Wind Dir Wind Speed Gust Speed Precip Events Conditions
12:53 AM 71.1 °F 62.1 °F 73% 30.14 in 10.0 mi North 11.5 mph - 0.00 in   Overcast
1:53 AM 70.0 °F 62.1 °F 76% 30.12 in 10.0 mi North 9.2 mph - N/A   Mostly Cloudy
2:53 AM 70.0 °F 62.1 °F 76% 30.10 in 10.0 mi North 9.2 mph - N/A   Overcast
3:53 AM 70.0 °F 62.1 °F 76% 30.10 in 10.0 mi North 9.2 mph - N/A   Scattered Clouds
4:53 AM 69.1 °F 61.0 °F 75% 30.10 in 10.0 mi NNW 6.9 mph - N/A   Partly Cloudy
5:53 AM 66.0 °F 60.1 °F 81% 30.10 in 10.0 mi NNW 5.8 mph - N/A   Clear
6:53 AM 70.0 °F 62.1 °F 76% 30.12 in 10.0 mi North 9.2 mph - N/A   Clear
7:53 AM 73.9 °F 64.0 °F 71% 30.13 in 10.0 mi North 11.5 mph - N/A   Clear
8:53 AM 73.0 °F 64.0 °F 73% 30.14 in 10.0 mi North 11.5 mph - N/A   Mostly Cloudy
9:15 AM 73.4 °F 64.4 °F 73% 30.15 in 10.0 mi North 10.4 mph - 0.00 in   Overcast
9:53 AM 77.0 °F 64.9 °F 66% 30.15 in 10.0 mi NNE 17.3 mph - 0.00 in   Mostly Cloudy
10:10 AM 78.8 °F 64.4 °F 61% 30.15 in 10.0 mi NNE 16.1 mph - N/A   Scattered Clouds
10:53 AM 79.0 °F 64.9 °F 62% 30.14 in 10.0 mi NNE 17.3 mph - N/A   Scattered Clouds
11:09 AM 75.2 °F 64.4 °F 69% 30.15 in 10.0 mi NNE 16.1 mph - N/A   Mostly Cloudy
11:27 AM 78.8 °F 66.2 °F 65% 30.15 in 10.0 mi NE 16.1 mph - N/A   Mostly Cloudy
11:53 AM 78.1 °F 64.9 °F 64% 30.14 in 10.0 mi NNE 17.3 mph - N/A   Mostly Cloudy
12:53 PM 78.1 °F 64.0 °F 62% 30.12 in 10.0 mi NNE 19.6 mph - N/A   Clear
1:53 PM 78.1 °F 64.9 °F 64% 30.11 in 10.0 mi NNE 17.3 mph - N/A   Scattered Clouds
2:53 PM 78.1 °F 64.0 °F 62% 30.10 in 10.0 mi NNE 18.4 mph - N/A   Scattered Clouds
3:53 PM 75.9 °F 62.1 °F 62% 30.09 in 10.0 mi NNE 19.6 mph - N/A   Partly Cloudy
4:53 PM 75.9 °F 62.1 °F 62% 30.08 in 10.0 mi NNE 18.4 mph - N/A   Clear
5:53 PM 73.9 °F 61.0 °F 64% 30.09 in 10.0 mi NNE 19.6 mph - N/A   Partly Cloudy
6:53 PM 72.0 °F 61.0 °F 68% 30.11 in 10.0 mi NNE 17.3 mph - N/A   Mostly Cloudy
7:53 PM 72.0 °F 62.1 °F 71% 30.13 in 10.0 mi NNE 17.3 mph - N/A   Mostly Cloudy
8:53 PM 72.0 °F 62.1 °F 71% 30.14 in 10.0 mi NE 20.7 mph - N/A   Mostly Cloudy
9:53 PM 72.0 °F 61.0 °F 68% 30.15 in 10.0 mi NNE 16.1 mph - N/A   Partly Cloudy
10:53 PM 72.0 °F 62.1 °F 71% 30.16 in 10.0 mi NE 17.3 mph - N/A   Overcast
11:53 PM 72.0 °F 61.0 °F 68% 30.15 in 10.0 mi NE 18.4 mph 23.0 mph N/A   Mostly Cloudy